KLM601 EHAM-KLAX

Flight info

Callsign KLM601
Flight time N/A
Altitude 34000
Route BERGI M90 LONAM DCT ASKAM DCT BEREP DCT GUNPA/M085F340 DCT 66N010W 6830N02000W 6930N03000W 70N040W/M085F360 70N060W DCT ADSAM/N0498F360 DCT 69N070W 67N080W 6330N09000W DCT YEK DCT 5630N10000W DCT DURUR/N0484F380 DCT BIL DCT KU81Q DCT FFU DCT WINEN DCT OVETO J107 BLD DCT HAKMN ANJLL4
Aircraft B789/H-SDE1E2E3FGHIJ2J3J4J5M1RWXY/LB1D1

Departure

Time 2026-05-08 08:15
Airport Amsterdam Airport Schiphol (EHAM)

Arrival

Time N/A
Airport Los Angeles International Airport (KLAX)
Time Latitude Longitude Altitude Speed Heading
2026-05-08 07:09 52.30803 4.76712 4 ft 0 kts 340°
2026-05-08 07:20 52.30802 4.76712 4 ft 0 kts 340°
2026-05-08 07:41 52.30802 4.76713 4 ft 0 kts 340°
2026-05-08 07:43 52.30801 4.76713 4 ft 0 kts 340°
2026-05-08 08:00 52.30799 4.76714 4 ft 2 kts 340°
2026-05-08 08:00 52.30774 4.76728 4 ft 4 kts 340°
2026-05-08 08:00 52.30749 4.76743 6 ft 4 kts 340°
2026-05-08 08:01 52.30725 4.76754 7 ft 4 kts
2026-05-08 08:01 52.30701 4.76739 7 ft 4 kts 23°
2026-05-08 08:01 52.30677 4.76731 5 ft 4 kts 336°
2026-05-08 08:01 52.30656 4.76751 7 ft 4 kts 326°
2026-05-08 08:02 52.30633 4.76775 6 ft 4 kts 324°
2026-05-08 08:02 52.30614 4.76804 7 ft 4 kts 303°
2026-05-08 08:02 52.30601 4.76843 4 ft 4 kts 295°
2026-05-08 08:02 52.30592 4.76879 5 ft 4 kts 319°
2026-05-08 08:03 52.30571 4.76904 7 ft 4 kts 330°
2026-05-08 08:03 52.30557 4.76917 6 ft 0 kts 328°
2026-05-08 08:07 52.30561 4.76914 5 ft 2 kts 328°
2026-05-08 08:07 52.30588 4.76886 5 ft 5 kts 328°
2026-05-08 08:07 52.30623 4.76866 5 ft 6 kts
2026-05-08 08:08 52.30653 4.76916 4 ft 7 kts 77°
2026-05-08 08:08 52.30623 4.77006 4 ft 12 kts 140°
2026-05-08 08:08 52.30552 4.77082 4 ft 13 kts 161°
2026-05-08 08:08 52.30480 4.77003 4 ft 16 kts 237°
2026-05-08 08:09 52.30408 4.76818 4 ft 23 kts 238°
2026-05-08 08:09 52.30319 4.76585 4 ft 24 kts 238°
2026-05-08 08:09 52.30226 4.76346 4 ft 27 kts 238°
2026-05-08 08:09 52.30129 4.76093 4 ft 26 kts 238°
2026-05-08 08:10 52.30036 4.75852 4 ft 25 kts 239°
2026-05-08 08:10 52.29944 4.75606 4 ft 25 kts 238°
2026-05-08 08:10 52.29856 4.75376 4 ft 23 kts 237°
2026-05-08 08:10 52.29867 4.75146 4 ft 22 kts 310°
2026-05-08 08:11 52.29967 4.74961 4 ft 21 kts 312°
2026-05-08 08:11 52.30067 4.74779 5 ft 21 kts 311°
2026-05-08 08:11 52.30159 4.74606 15 ft 21 kts 311°
2026-05-08 08:11 52.30262 4.74415 15 ft 22 kts 311°
2026-05-08 08:12 52.30358 4.74231 4 ft 17 kts 300°
2026-05-08 08:12 52.30345 4.74072 4 ft 14 kts 228°
2026-05-08 08:12 52.30276 4.73981 4 ft 12 kts 215°
2026-05-08 08:12 52.30235 4.73932 4 ft 1 kts 217°
2026-05-08 08:13 52.30229 4.73925 4 ft 3 kts 217°
2026-05-08 08:13 52.30197 4.73872 3 ft 10 kts 238°
2026-05-08 08:13 52.30197 4.73761 3 ft 9 kts 310°
2026-05-08 08:13 52.30245 4.73743 2 ft 8 kts 358°
2026-05-08 08:14 52.30338 4.73750 1 ft 26 kts
2026-05-08 08:14 52.30712 4.73784 4 ft 83 kts
2026-05-08 08:14 52.31477 4.73854 2 ft 136 kts
2026-05-08 08:14 52.32578 4.73959 18 ft 179 kts
2026-05-08 08:15 52.33843 4.74051 593 ft 183 kts
2026-05-08 08:15 52.35145 4.74041 1329 ft 192 kts 352°
2026-05-08 08:15 52.36433 4.73256 1776 ft 204 kts 332°
2026-05-08 08:15 52.37697 4.72108 2281 ft 212 kts 332°
2026-05-08 08:16 52.39012 4.70904 2832 ft 219 kts 332°
2026-05-08 08:16 52.40360 4.69664 3403 ft 225 kts 331°
2026-05-08 08:16 52.41763 4.68454 3956 ft 231 kts 336°
2026-05-08 08:16 52.43259 4.67327 4419 ft 241 kts 335°
2026-05-08 08:17 52.44833 4.66136 4789 ft 259 kts 336°
2026-05-08 08:17 52.46524 4.64861 5164 ft 275 kts 335°
2026-05-08 08:17 52.48171 4.63210 5555 ft 279 kts 328°
2026-05-08 08:17 52.49870 4.61649 6052 ft 282 kts 332°
2026-05-08 08:18 52.51614 4.60163 6554 ft 281 kts 338°
2026-05-08 08:18 52.53452 4.59076 7119 ft 283 kts 342°
2026-05-08 08:18 52.55328 4.58001 7674 ft 287 kts 339°
2026-05-08 08:18 52.57200 4.56776 8248 ft 292 kts 337°
2026-05-08 08:19 52.59083 4.55507 8837 ft 293 kts 337°
2026-05-08 08:19 52.60941 4.54292 9413 ft 296 kts 338°
2026-05-08 08:19 52.62837 4.53069 9956 ft 299 kts 337°
2026-05-08 08:19 52.64801 4.51791 10276 ft 311 kts 337°
2026-05-08 08:20 52.66878 4.50430 10468 ft 331 kts 336°
2026-05-08 08:20 52.69080 4.48985 10665 ft 348 kts 338°
2026-05-08 08:20 52.71365 4.47494 10875 ft 358 kts 338°
2026-05-08 08:20 52.73689 4.45976 11448 ft 360 kts 338°
2026-05-08 08:21 52.76031 4.44438 12056 ft 364 kts 337°
2026-05-08 08:21 52.78399 4.42882 12640 ft 368 kts 337°
2026-05-08 08:21 52.80788 4.41310 13272 ft 371 kts 337°
2026-05-08 08:21 52.83166 4.39746 13864 ft 374 kts 337°
2026-05-08 08:22 52.85597 4.38145 14400 ft 378 kts 336°
2026-05-08 08:22 52.88044 4.36530 14958 ft 380 kts 336°
2026-05-08 08:22 52.90537 4.34882 15497 ft 382 kts 337°
2026-05-08 08:22 52.93013 4.33245 16056 ft 384 kts 336°
2026-05-08 08:23 52.95475 4.31614 16548 ft 387 kts 337°
2026-05-08 08:23 52.97980 4.29953 17087 ft 389 kts 336°
2026-05-08 08:23 53.00499 4.28281 17605 ft 391 kts 336°
2026-05-08 08:23 53.03031 4.26596 18099 ft 394 kts 336°
2026-05-08 08:24 53.05580 4.24901 18574 ft 396 kts 336°
2026-05-08 08:24 53.08192 4.23373 18973 ft 400 kts 345°
2026-05-08 08:24 53.10920 4.22373 19336 ft 403 kts 345°
2026-05-08 08:24 53.13656 4.21348 19752 ft 405 kts 345°
2026-05-08 08:25 53.16411 4.20297 20148 ft 407 kts 345°
2026-05-08 08:25 53.19178 4.19242 20556 ft 409 kts 345°
2026-05-08 08:25 53.21963 4.18185 20949 ft 411 kts 345°
2026-05-08 08:25 53.24758 4.17125 21314 ft 413 kts 345°
2026-05-08 08:26 53.27566 4.16054 21671 ft 415 kts 345°
2026-05-08 08:26 53.30391 4.14975 22036 ft 417 kts 345°
2026-05-08 08:26 53.33229 4.13890 22388 ft 420 kts 345°
2026-05-08 08:26 53.36082 4.12800 22737 ft 422 kts 345°
2026-05-08 08:27 53.38949 4.11702 23067 ft 424 kts 345°
2026-05-08 08:27 53.41834 4.10594 23343 ft 427 kts 345°
2026-05-08 08:27 53.44700 4.09493 23670 ft 429 kts 345°
2026-05-08 08:27 53.47620 4.08370 23937 ft 431 kts 345°
2026-05-08 08:28 53.50544 4.07243 24217 ft 432 kts 345°
2026-05-08 08:28 53.53480 4.06110 24475 ft 434 kts 345°
2026-05-08 08:28 53.56427 4.04972 24738 ft 435 kts 345°
2026-05-08 08:28 53.59383 4.03828 24980 ft 437 kts 345°
2026-05-08 08:29 53.62350 4.02678 25215 ft 438 kts 345°
2026-05-08 08:29 53.65329 4.01521 25458 ft 440 kts 345°
2026-05-08 08:29 53.68313 4.00363 25715 ft 441 kts 345°
2026-05-08 08:29 53.71302 3.99198 25984 ft 441 kts 345°
2026-05-08 08:30 53.74294 3.98034 26206 ft 442 kts 345°
2026-05-08 08:30 53.77301 3.96865 26438 ft 444 kts 345°
2026-05-08 08:30 53.83333 3.94492 26890 ft 446 kts 343°
2026-05-08 08:31 53.86265 3.92823 27054 ft 445 kts 337°
2026-05-08 08:31 53.89183 3.91018 27281 ft 446 kts 338°
2026-05-08 08:31 53.92109 3.89234 27462 ft 448 kts 338°
2026-05-08 08:31 53.95046 3.87430 27745 ft 448 kts 337°
2026-05-08 08:32 53.97976 3.85597 27980 ft 449 kts 337°
2026-05-08 08:32 54.00915 3.83765 28181 ft 451 kts 337°
2026-05-08 08:32 54.03869 3.81937 28394 ft 452 kts 337°
2026-05-08 08:32 54.06827 3.80103 28600 ft 453 kts 337°
2026-05-08 08:33 54.09793 3.78252 28797 ft 455 kts 337°
2026-05-08 08:33 54.12768 3.76391 29007 ft 456 kts 337°
2026-05-08 08:33 54.15715 3.74549 29194 ft 457 kts 337°
2026-05-08 08:33 54.18709 3.72677 29381 ft 459 kts 337°
2026-05-08 08:34 54.21703 3.70800 29680 ft 458 kts 337°
2026-05-08 08:34 54.24713 3.68908 29761 ft 462 kts 337°
2026-05-08 08:34 54.27727 3.67012 29976 ft 463 kts 337°
2026-05-08 08:34 54.30755 3.65106 30149 ft 464 kts 337°
2026-05-08 08:35 54.33792 3.63190 30322 ft 465 kts 337°
2026-05-08 08:35 54.36831 3.61269 30463 ft 467 kts 337°
2026-05-08 08:35 54.39880 3.59339 30618 ft 468 kts 337°
2026-05-08 08:35 54.42936 3.57401 30773 ft 469 kts 337°
2026-05-08 08:36 54.46002 3.55455 30947 ft 469 kts 337°
2026-05-08 08:36 54.49067 3.53505 31113 ft 470 kts 337°
2026-05-08 08:36 54.52141 3.51547 31257 ft 471 kts 337°
2026-05-08 08:36 54.55223 3.49580 31397 ft 472 kts 337°
2026-05-08 08:37 54.58306 3.47611 31533 ft 474 kts 337°
2026-05-08 08:37 54.61399 3.45631 31677 ft 475 kts 337°
2026-05-08 08:37 54.64503 3.43640 31816 ft 476 kts 337°
2026-05-08 08:37 54.67610 3.41645 31952 ft 477 kts 337°
2026-05-08 08:38 54.70723 3.39642 32097 ft 478 kts 337°
2026-05-08 08:38 54.73842 3.37633 32251 ft 479 kts 337°
2026-05-08 08:38 54.76967 3.35616 32368 ft 480 kts 337°
2026-05-08 08:38 54.80057 3.33618 32496 ft 481 kts 337°
2026-05-08 08:39 54.83193 3.31588 32626 ft 482 kts 337°
2026-05-08 08:39 54.86332 3.29553 32770 ft 482 kts 337°
2026-05-08 08:39 54.89474 3.27512 32981 ft 482 kts 337°
2026-05-08 08:39 54.92613 3.25469 33113 ft 482 kts 337°
2026-05-08 08:40 54.99071 3.22148 33361 ft 487 kts 347°
2026-05-08 08:40 55.02405 3.21045 33502 ft 487 kts 347°
2026-05-08 08:40 55.05741 3.19956 33693 ft 487 kts 347°
2026-05-08 08:41 55.09071 3.18865 33863 ft 487 kts 347°
2026-05-08 08:41 55.12399 3.17761 34023 ft 487 kts 347°
2026-05-08 08:41 55.15726 3.16656 34174 ft 487 kts 347°
2026-05-08 08:41 55.18830 3.15628 34161 ft 490 kts 347°
2026-05-08 08:42 55.25503 3.13417 34160 ft 486 kts 347°
2026-05-08 08:42 55.32131 3.11204 34165 ft 484 kts 347°
2026-05-08 08:43 55.38760 3.08989 34167 ft 486 kts 347°
2026-05-08 08:43 55.45367 3.06771 34170 ft 487 kts 347°
2026-05-08 08:44 55.52030 3.04528 34186 ft 489 kts 347°
2026-05-08 08:44 55.58717 3.02269 34181 ft 488 kts 347°
2026-05-08 08:45 55.64259 3.00390 34169 ft 487 kts 347°
2026-05-08 08:45 55.70905 2.98130 34174 ft 486 kts 347°
2026-05-08 08:46 55.77542 2.95865 34167 ft 487 kts 347°
2026-05-08 08:46 55.84213 2.93581 34182 ft 490 kts 347°
2026-05-08 08:47 55.90916 2.91278 34174 ft 490 kts 347°
2026-05-08 08:47 55.97595 2.88975 34161 ft 488 kts 347°
2026-05-08 08:48 56.04017 2.86753 34158 ft 487 kts 347°
2026-05-08 08:48 56.10683 2.84439 34153 ft 488 kts 347°
2026-05-08 08:49 56.17371 2.82108 34158 ft 491 kts 346°
2026-05-08 08:49 56.24041 2.79776 34162 ft 491 kts 346°
2026-05-08 08:50 56.30790 2.77407 34156 ft 491 kts 347°
2026-05-08 08:50 56.37510 2.75041 34156 ft 493 kts 347°
2026-05-08 08:51 56.44197 2.72678 34150 ft 492 kts 347°
2026-05-08 08:51 56.50912 2.70296 34140 ft 491 kts 346°
2026-05-08 08:52 56.57608 2.67912 34142 ft 491 kts 346°
2026-05-08 08:52 56.64328 2.65510 34134 ft 493 kts 346°
2026-05-08 08:53 56.71059 2.63098 34133 ft 493 kts 346°
2026-05-08 08:53 56.77789 2.60674 34132 ft 493 kts 346°
2026-05-08 08:54 56.84519 2.58244 34128 ft 494 kts 346°
2026-05-08 08:54 56.91280 2.55793 34128 ft 495 kts 346°
2026-05-08 08:55 56.98032 2.53336 34122 ft 495 kts 346°
2026-05-08 08:55 57.04792 2.50866 34125 ft 495 kts 346°
2026-05-08 08:56 57.11551 2.48389 34116 ft 496 kts 346°
2026-05-08 08:56 57.18330 2.45895 34122 ft 497 kts 346°
2026-05-08 08:57 57.25075 2.43403 34113 ft 497 kts 346°
2026-05-08 08:57 57.31865 2.40886 34114 ft 497 kts 346°
2026-05-08 08:58 57.38655 2.38360 34124 ft 499 kts 346°
2026-05-08 08:58 57.45471 2.35813 34112 ft 500 kts 346°
2026-05-08 08:59 57.52292 2.33256 34111 ft 500 kts 346°
2026-05-08 08:59 57.59107 2.30690 34104 ft 499 kts 346°
2026-05-08 09:00 57.65911 2.28120 34114 ft 500 kts 346°
2026-05-08 09:00 57.72755 2.25523 34117 ft 503 kts 346°
2026-05-08 09:01 57.79624 2.22908 34111 ft 503 kts 346°
2026-05-08 09:01 57.86480 2.20288 34113 ft 502 kts 346°
2026-05-08 09:02 57.93313 2.17666 34105 ft 502 kts 346°
2026-05-08 09:02 58.00131 2.15038 34108 ft 505 kts 346°
2026-05-08 09:03 58.07032 2.12370 34096 ft 506 kts 346°
2026-05-08 09:03 58.13935 2.09690 34083 ft 505 kts 346°
2026-05-08 09:04 58.20824 2.07005 34070 ft 506 kts 346°
2026-05-08 09:04 58.27729 2.04302 34059 ft 507 kts 346°
2026-05-08 09:05 58.34660 2.01579 34060 ft 508 kts 346°
2026-05-08 09:05 58.41532 1.98868 34049 ft 508 kts 346°
2026-05-08 09:06 58.48466 1.96122 34035 ft 510 kts 345°
2026-05-08 09:06 58.55426 1.93354 34039 ft 511 kts 345°
2026-05-08 09:07 58.62184 1.90656 34046 ft 512 kts 345°
2026-05-08 09:07 58.69163 1.87859 34056 ft 513 kts 345°
2026-05-08 09:08 58.76178 1.85034 34044 ft 515 kts 345°
2026-05-08 09:08 58.83187 1.82201 34048 ft 515 kts 345°
2026-05-08 09:09 58.90155 1.79373 34053 ft 515 kts 345°
2026-05-08 09:09 58.97171 1.76514 34041 ft 515 kts 345°
2026-05-08 09:10 59.04136 1.73365 34064 ft 511 kts 335°
2026-05-08 09:10 59.10677 1.68007 34053 ft 510 kts 333°
2026-05-08 09:11 59.17197 1.62539 34056 ft 510 kts 333°
2026-05-08 09:11 59.23729 1.57079 34048 ft 510 kts 333°
2026-05-08 09:12 59.30253 1.51573 34035 ft 510 kts 333°
2026-05-08 09:12 59.36742 1.46093 34025 ft 512 kts 332°
2026-05-08 09:13 59.43278 1.40539 34026 ft 511 kts 332°
2026-05-08 09:13 59.49791 1.34988 34028 ft 509 kts 332°
2026-05-08 09:14 59.56276 1.29432 34045 ft 508 kts 332°
2026-05-08 09:14 59.62790 1.23829 34001 ft 512 kts 332°
2026-05-08 09:15 59.69338 1.18174 34007 ft 514 kts 332°
2026-05-08 09:15 59.75895 1.12488 34000 ft 514 kts 332°
2026-05-08 09:16 59.82444 1.06783 34000 ft 514 kts 332°
2026-05-08 09:16 59.88985 1.01061 34002 ft 513 kts 331°
2026-05-08 09:17 59.95536 0.95303 33983 ft 514 kts 331°
2026-05-08 09:17 60.02044 0.89561 33980 ft 514 kts 331°
2026-05-08 09:18 60.08601 0.83749 33982 ft 515 kts 331°
2026-05-08 09:18 60.15147 0.77923 33974 ft 514 kts 331°
2026-05-08 09:19 60.21686 0.72074 33965 ft 515 kts 331°
2026-05-08 09:19 60.28238 0.66192 34010 ft 516 kts 330°
2026-05-08 09:20 60.34808 0.60266 33954 ft 516 kts 330°